Regional Weather Roundup
Issued by NWS

Home | Current Version | Previous Version | Graphics & Text | Print | Product List | Glossary On
Versions: 1 2 3 4 5 6 7 8 9 10 11 12 13 14 15 16 17 18 19 20 21 22 23 24 25 26 27 28 29 30 31 32 33 34 35 36 37 38 39 40 41 42 43 44 45 46 47 48 49 50
000
ASUS45 KBOU 301807
RWRCO

WEATHER ROUNDUP FOR COLORADO
NATIONAL WEATHER SERVICE DENVER/BOULDER CO
1200 PM MDT WED JUL 30 2014

NOTE: "FAIR" INDICATES FEW OR NO CLOUDS BELOW 12000 FEET WITH NO
SIGNIFICANT WEATHER AND/OR OBSTRUCTIONS TO VISIBILITY.

COZ001>005-013-030-031-301900-
...NORTHWEST COLORADO...

CITY           SKY/WX    TMP DP  RH WIND       PRES   REMARKS
CRAIG          CLOUDY    57  56  96 NW8       30.30F
HAYDEN         CLOUDY    61  54  77 N3        30.32S
MEEKER         CLOUDY    68  53  58 CALM      30.30S
MOUNT WERNER   NOT AVBL
STEAMBOAT SPGS CLOUDY    57  56  96 NW6       30.34S
WALDEN         CLOUDY    54  46  76 NE8       30.42F
$$

COZ006>008-011-301900-
...WEST CENTRAL VALLEYS...

CITY           SKY/WX    TMP DP  RH WIND       PRES   REMARKS
GRAND JUNCTION MOSUNNY   75  55  49 CALM      30.19F
MONTROSE       MOSUNNY   74  55  51 NW7       30.26F
EAGLE          PTSUNNY   70  52  52 CALM      30.31F
RIFLE          MOSUNNY   72  52  49 VRB3      30.24F
DELTA          MOSUNNY   78  54  42 CALM      30.22F
NUCLA          MOSUNNY   73  54  49 N7        30.29F
$$

COZ017>023-064>068-301900-
...SOUTHWEST COLORADO...

CITY           SKY/WX    TMP DP  RH WIND       PRES   REMARKS
DURANGO        MOSUNNY   78  47  33 W8G17     30.27F
CORTEZ         SUNNY     81  49  32 SW8       30.24S
PAGOSA SPRINGS MOSUNNY   73  45  37 CALM      30.35F
TELLURIDE      MOSUNNY   68  46  45 W8        30.44S
WOLF CREEK PAS NOT AVBL
$$

COZ009-010-012-014-032>034-037-058>063-301900-
...CENTRAL COLORADO...

CITY           SKY/WX    TMP DP  RH WIND       PRES   REMARKS
ASPEN          CLOUDY    66  48  52 CALM      30.36S
BUENA VISTA    PTSUNNY   67  46  47 SE6       30.38S
COPPER MTN     CLOUDY    54  43  66 W9        30.64S
BERTHOUD PASS  FOG       37  37 100 MISG      30.68S VSB<1/4
COTTONWOOD PAS PTSUNNY   64  45  48 SE5       30.50F
GUNNISON       MOSUNNY   66  46  48 CALM      30.38F
KREMMLING      CLOUDY    64  50  59 NE8       30.37S
LEADVILLE      CLOUDY    57  41  55 CALM      30.48S
MONARCH PASS   CLOUDY    48  43  81 NE3       30.74S
SALIDA         PTSUNNY   70  53  56 E10       30.42F
SUNLIGHT       CLOUDY    52  50  93 CALM      30.58S
WILKERSON PASS LGT RAIN  45  43  93 NE6       30.63S VSB 1/4
$$

COZ069>075-301900-
...SAN LUIS VALLEY/SANGRE DE CRISTO MOUNTAINS...

CITY           SKY/WX    TMP DP  RH WIND       PRES   REMARKS
ALAMOSA        MOSUNNY   71  48  43 VRB3      30.34F
LA VETA PASS   LGT RAIN  52  50  93 NE5       30.54S VSB 1/4
SAGUACHE       MOSUNNY   68  52  56 SW3       30.37F
$$

COZ035-036-038>040-301900-
...NORTHERN COLORADO FRONT RANGE...

CITY           SKY/WX    TMP DP  RH WIND       PRES   REMARKS
DENVER INTL AP LGT RAIN  60  57  89 N8        30.35R FOG
DMNS CITY PARK   N/A     58  57  97 N8        30.34S
AURORA         RAIN      58  58  99 E7        30.36R FOG
FRONT RANGE AP RAIN      61  57  88 E8        30.35S
ERIE MUNI ARPT RAIN      58  56  94 N5        30.35S
BOULDER MUN AP   N/A    N/A N/A N/A MISG        N/A
CENTENNIAL     LGT RAIN  60  56  86 NE7       30.35S FOG
BROOMFIELD     CLOUDY    59  59 100 N7        30.36S FOG
FORT COLLINS   CLOUDY    59  57  94 N6        30.36S
LONGMONT       LGT RAIN  63  59  88 NE3       30.36S
$$

COZ041-046-047-076>085-087-088-301900-
...PIKES PEAK/PALMER DIVIDE AND SOUTHERN FOOTHILLS...

CITY           SKY/WX    TMP DP  RH WIND       PRES   REMARKS
COLO. SPRINGS  CLOUDY    61  55  81 E12       30.36S
A. F. ACADEMY  LGT RAIN  57  56  99 W5        30.37S FOG
ELLICOTT       CLOUDY    62  55  77 E17       30.34F
FALCON         CLOUDY    58  54  86 E9        30.40S
FORT CARSON    LGT RAIN  58  58  99 E5        30.35R FOG
LIMON          CLOUDY    59  56  89 E13       30.34R
MONUMENT HILL  CLOUDY    55  52  88 E9        30.38S
TRINIDAD       CLOUDY    60  58  92 NE10      30.32R
$$

COZ042>045-048>051-090-091-301900-
...NORTHEAST COLORADO...

CITY           SKY/WX    TMP DP  RH WIND       PRES   REMARKS
GREELEY ARPT   NOT AVBL
AKRON          CLOUDY    62  58  86 SE10      30.31S
BURLINGTON     CLOUDY    64  56  75 E9        30.27F
WRAY             N/A     67  60  78 CALM      30.28F
STERLING       CLOUDY    68  63  83 SW6       30.28S
HOLYOKE        CLOUDY    73  61  64 S3        30.27F
FORT MORGAN    CLOUDY    64  58  82 E8        30.32S
$$

COZ086-089-092>099-301900-
...SOUTHEAST COLORADO...

CITY           SKY/WX    TMP DP  RH WIND       PRES   REMARKS
PUEBLO         LGT RAIN  64  60  87 E7        30.29R
LA JUNTA       CLOUDY    65  59  81 E16       30.26R
LAMAR          CLOUDY    64  60  87 E13       30.22S
SPRINGFIELD      N/A     61  60  97 NE16      30.23R
$$


USA.gov is the U.S. government's official web portal to all federal, state and local government web resources and services.